Index of /20260504/WXO-DD/model_rdps/10km/18/068
Name Last modified Size Description
Parent Directory -
20260504T18Z_MSC_RDPS_AbsoluteVorticity_IsbL-0250_RLatLon0.09_PT068H.grib2 2026-05-04 21:01 480K
20260504T18Z_MSC_RDPS_AbsoluteVorticity_IsbL-0500_RLatLon0.09_PT068H.grib2 2026-05-04 21:01 556K
20260504T18Z_MSC_RDPS_AbsoluteVorticity_IsbL-0700_RLatLon0.09_PT068H.grib2 2026-05-04 21:01 606K
20260504T18Z_MSC_RDPS_AbsoluteVorticity_IsbL-0850_RLatLon0.09_PT068H.grib2 2026-05-04 21:01 785K
20260504T18Z_MSC_RDPS_AirTemp_AGL-120m_RLatLon0.09_PT068H.grib2 2026-05-04 21:01 387K
20260504T18Z_MSC_RDPS_AirTemp_AGL-2m_RLatLon0.09_PT068H.grib2 2026-05-04 21:01 631K
20260504T18Z_MSC_RDPS_AirTemp_AGL-40m_RLatLon0.09_PT068H.grib2 2026-05-04 21:01 401K
20260504T18Z_MSC_RDPS_AirTemp_AGL-80m_RLatLon0.09_PT068H.grib2 2026-05-04 21:01 394K
20260504T18Z_MSC_RDPS_AirTemp_IsbL-0001_RLatLon0.09_PT068H.grib2 2026-05-04 21:01 244K
20260504T18Z_MSC_RDPS_AirTemp_IsbL-0005_RLatLon0.09_PT068H.grib2 2026-05-04 21:01 289K
20260504T18Z_MSC_RDPS_AirTemp_IsbL-0010_RLatLon0.09_PT068H.grib2 2026-05-04 21:01 392K
20260504T18Z_MSC_RDPS_AirTemp_IsbL-0020_RLatLon0.09_PT068H.grib2 2026-05-04 21:01 322K
20260504T18Z_MSC_RDPS_AirTemp_IsbL-0030_RLatLon0.09_PT068H.grib2 2026-05-04 21:01 339K
20260504T18Z_MSC_RDPS_AirTemp_IsbL-0050_RLatLon0.09_PT068H.grib2 2026-05-04 21:01 310K
20260504T18Z_MSC_RDPS_AirTemp_IsbL-0100_RLatLon0.09_PT068H.grib2 2026-05-04 21:01 416K
20260504T18Z_MSC_RDPS_AirTemp_IsbL-0150_RLatLon0.09_PT068H.grib2 2026-05-04 21:01 404K
20260504T18Z_MSC_RDPS_AirTemp_IsbL-0175_RLatLon0.09_PT068H.grib2 2026-05-04 21:01 401K
20260504T18Z_MSC_RDPS_AirTemp_IsbL-0200_RLatLon0.09_PT068H.grib2 2026-05-04 21:01 410K
20260504T18Z_MSC_RDPS_AirTemp_IsbL-0225_RLatLon0.09_PT068H.grib2 2026-05-04 21:01 411K
20260504T18Z_MSC_RDPS_AirTemp_IsbL-0250_RLatLon0.09_PT068H.grib2 2026-05-04 21:01 416K
20260504T18Z_MSC_RDPS_AirTemp_IsbL-0275_RLatLon0.09_PT068H.grib2 2026-05-04 21:01 397K
20260504T18Z_MSC_RDPS_AirTemp_IsbL-0300_RLatLon0.09_PT068H.grib2 2026-05-04 21:01 404K
20260504T18Z_MSC_RDPS_AirTemp_IsbL-0350_RLatLon0.09_PT068H.grib2 2026-05-04 21:01 418K
20260504T18Z_MSC_RDPS_AirTemp_IsbL-0400_RLatLon0.09_PT068H.grib2 2026-05-04 21:01 419K
20260504T18Z_MSC_RDPS_AirTemp_IsbL-0450_RLatLon0.09_PT068H.grib2 2026-05-04 21:01 425K
20260504T18Z_MSC_RDPS_AirTemp_IsbL-0500_RLatLon0.09_PT068H.grib2 2026-05-04 21:01 435K
20260504T18Z_MSC_RDPS_AirTemp_IsbL-0550_RLatLon0.09_PT068H.grib2 2026-05-04 21:01 417K
20260504T18Z_MSC_RDPS_AirTemp_IsbL-0600_RLatLon0.09_PT068H.grib2 2026-05-04 21:01 433K
20260504T18Z_MSC_RDPS_AirTemp_IsbL-0650_RLatLon0.09_PT068H.grib2 2026-05-04 21:01 448K
20260504T18Z_MSC_RDPS_AirTemp_IsbL-0700_RLatLon0.09_PT068H.grib2 2026-05-04 21:01 473K
20260504T18Z_MSC_RDPS_AirTemp_IsbL-0750_RLatLon0.09_PT068H.grib2 2026-05-04 21:01 514K
20260504T18Z_MSC_RDPS_AirTemp_IsbL-0800_RLatLon0.09_PT068H.grib2 2026-05-04 21:01 571K
20260504T18Z_MSC_RDPS_AirTemp_IsbL-0850_RLatLon0.09_PT068H.grib2 2026-05-04 21:01 633K
20260504T18Z_MSC_RDPS_AirTemp_IsbL-0875_RLatLon0.09_PT068H.grib2 2026-05-04 21:01 527K
20260504T18Z_MSC_RDPS_AirTemp_IsbL-0900_RLatLon0.09_PT068H.grib2 2026-05-04 21:01 537K
20260504T18Z_MSC_RDPS_AirTemp_IsbL-0925_RLatLon0.09_PT068H.grib2 2026-05-04 21:01 538K
20260504T18Z_MSC_RDPS_AirTemp_IsbL-0950_RLatLon0.09_PT068H.grib2 2026-05-04 21:01 538K
20260504T18Z_MSC_RDPS_AirTemp_IsbL-0970_RLatLon0.09_PT068H.grib2 2026-05-04 21:01 535K
20260504T18Z_MSC_RDPS_AirTemp_IsbL-0985_RLatLon0.09_PT068H.grib2 2026-05-04 21:01 523K
20260504T18Z_MSC_RDPS_AirTemp_IsbL-1000_RLatLon0.09_PT068H.grib2 2026-05-04 21:01 505K
20260504T18Z_MSC_RDPS_AirTemp_IsbL-1015_RLatLon0.09_PT068H.grib2 2026-05-04 21:01 505K
20260504T18Z_MSC_RDPS_Albedo_Sfc_RLatLon0.09_PT068H.grib2 2026-05-04 21:01 157K
20260504T18Z_MSC_RDPS_CAPE_Sfc_RLatLon0.09_PT068H.grib2 2026-05-04 21:01 1.8M
20260504T18Z_MSC_RDPS_CIN_Sfc_RLatLon0.09_PT068H.grib2 2026-05-04 21:01 1.1M
20260504T18Z_MSC_RDPS_CloudWater_EAtm_RLatLon0.09_PT068H.grib2 2026-05-04 21:01 224K
20260504T18Z_MSC_RDPS_ConvectivePrecip-Accum_Sfc_RLatLon0.09_PT068H.grib2 2026-05-04 21:01 1.1M
20260504T18Z_MSC_RDPS_DewPointDepression_AGL-2m_RLatLon0.09_PT068H.grib2 2026-05-04 21:01 419K
20260504T18Z_MSC_RDPS_DewPointDepression_IsbL-0001_RLatLon0.09_PT068H.grib2 2026-05-04 21:01 193
20260504T18Z_MSC_RDPS_DewPointDepression_IsbL-0005_RLatLon0.09_PT068H.grib2 2026-05-04 21:01 193
20260504T18Z_MSC_RDPS_DewPointDepression_IsbL-0010_RLatLon0.09_PT068H.grib2 2026-05-04 21:01 193
20260504T18Z_MSC_RDPS_DewPointDepression_IsbL-0020_RLatLon0.09_PT068H.grib2 2026-05-04 21:01 193
20260504T18Z_MSC_RDPS_DewPointDepression_IsbL-0030_RLatLon0.09_PT068H.grib2 2026-05-04 21:01 193
20260504T18Z_MSC_RDPS_DewPointDepression_IsbL-0050_RLatLon0.09_PT068H.grib2 2026-05-04 21:01 110K
20260504T18Z_MSC_RDPS_DewPointDepression_IsbL-0100_RLatLon0.09_PT068H.grib2 2026-05-04 21:01 111K
20260504T18Z_MSC_RDPS_DewPointDepression_IsbL-0150_RLatLon0.09_PT068H.grib2 2026-05-04 21:01 133K
20260504T18Z_MSC_RDPS_DewPointDepression_IsbL-0175_RLatLon0.09_PT068H.grib2 2026-05-04 21:01 175K
20260504T18Z_MSC_RDPS_DewPointDepression_IsbL-0200_RLatLon0.09_PT068H.grib2 2026-05-04 21:01 217K
20260504T18Z_MSC_RDPS_DewPointDepression_IsbL-0225_RLatLon0.09_PT068H.grib2 2026-05-04 21:01 248K
20260504T18Z_MSC_RDPS_DewPointDepression_IsbL-0250_RLatLon0.09_PT068H.grib2 2026-05-04 21:01 296K
20260504T18Z_MSC_RDPS_DewPointDepression_IsbL-0275_RLatLon0.09_PT068H.grib2 2026-05-04 21:01 305K
20260504T18Z_MSC_RDPS_DewPointDepression_IsbL-0300_RLatLon0.09_PT068H.grib2 2026-05-04 21:01 321K
20260504T18Z_MSC_RDPS_DewPointDepression_IsbL-0350_RLatLon0.09_PT068H.grib2 2026-05-04 21:01 328K
20260504T18Z_MSC_RDPS_DewPointDepression_IsbL-0400_RLatLon0.09_PT068H.grib2 2026-05-04 21:01 338K
20260504T18Z_MSC_RDPS_DewPointDepression_IsbL-0450_RLatLon0.09_PT068H.grib2 2026-05-04 21:01 343K
20260504T18Z_MSC_RDPS_DewPointDepression_IsbL-0500_RLatLon0.09_PT068H.grib2 2026-05-04 21:01 347K
20260504T18Z_MSC_RDPS_DewPointDepression_IsbL-0550_RLatLon0.09_PT068H.grib2 2026-05-04 21:01 355K
20260504T18Z_MSC_RDPS_DewPointDepression_IsbL-0600_RLatLon0.09_PT068H.grib2 2026-05-04 21:01 363K
20260504T18Z_MSC_RDPS_DewPointDepression_IsbL-0650_RLatLon0.09_PT068H.grib2 2026-05-04 21:01 364K
20260504T18Z_MSC_RDPS_DewPointDepression_IsbL-0700_RLatLon0.09_PT068H.grib2 2026-05-04 21:01 373K
20260504T18Z_MSC_RDPS_DewPointDepression_IsbL-0750_RLatLon0.09_PT068H.grib2 2026-05-04 21:01 399K
20260504T18Z_MSC_RDPS_DewPointDepression_IsbL-0800_RLatLon0.09_PT068H.grib2 2026-05-04 21:01 445K
20260504T18Z_MSC_RDPS_DewPointDepression_IsbL-0850_RLatLon0.09_PT068H.grib2 2026-05-04 21:01 483K
20260504T18Z_MSC_RDPS_DewPointDepression_IsbL-0875_RLatLon0.09_PT068H.grib2 2026-05-04 21:01 484K
20260504T18Z_MSC_RDPS_DewPointDepression_IsbL-0900_RLatLon0.09_PT068H.grib2 2026-05-04 21:01 474K
20260504T18Z_MSC_RDPS_DewPointDepression_IsbL-0925_RLatLon0.09_PT068H.grib2 2026-05-04 21:01 461K
20260504T18Z_MSC_RDPS_DewPointDepression_IsbL-0950_RLatLon0.09_PT068H.grib2 2026-05-04 21:01 454K
20260504T18Z_MSC_RDPS_DewPointDepression_IsbL-0970_RLatLon0.09_PT068H.grib2 2026-05-04 21:01 447K
20260504T18Z_MSC_RDPS_DewPointDepression_IsbL-0985_RLatLon0.09_PT068H.grib2 2026-05-04 21:01 446K
20260504T18Z_MSC_RDPS_DewPointDepression_IsbL-1000_RLatLon0.09_PT068H.grib2 2026-05-04 21:01 442K
20260504T18Z_MSC_RDPS_DewPointDepression_IsbL-1015_RLatLon0.09_PT068H.grib2 2026-05-04 21:01 433K
20260504T18Z_MSC_RDPS_DewPoint_AGL-2m_RLatLon0.09_PT068H.grib2 2026-05-04 21:01 407K
20260504T18Z_MSC_RDPS_DownwardLongwaveRadiationFlux-Accum_Sfc_RLatLon0.09_PT068H.grib2 2026-05-04 21:01 422K
20260504T18Z_MSC_RDPS_DownwardShortwaveRadiationFlux-Accum_NTAtm_RLatLon0.09_PT068H.grib2 2026-05-04 21:01 134K
20260504T18Z_MSC_RDPS_DownwardShortwaveRadiationFlux-Accum_Sfc_RLatLon0.09_PT068H.grib2 2026-05-04 21:01 620K
20260504T18Z_MSC_RDPS_FreezingRain-Accum1h_Sfc_RLatLon0.09_PT068H.grib2 2026-05-04 21:01 43K
20260504T18Z_MSC_RDPS_FreezingRain-Accum_Sfc_RLatLon0.09_PT068H.grib2 2026-05-04 21:01 206K
20260504T18Z_MSC_RDPS_GeopotentialHeight_IsbL-0001_RLatLon0.09_PT068H.grib2 2026-05-04 21:01 246K
20260504T18Z_MSC_RDPS_GeopotentialHeight_IsbL-0005_RLatLon0.09_PT068H.grib2 2026-05-04 21:01 341K
20260504T18Z_MSC_RDPS_GeopotentialHeight_IsbL-0010_RLatLon0.09_PT068H.grib2 2026-05-04 21:01 309K
20260504T18Z_MSC_RDPS_GeopotentialHeight_IsbL-0020_RLatLon0.09_PT068H.grib2 2026-05-04 21:01 308K
20260504T18Z_MSC_RDPS_GeopotentialHeight_IsbL-0030_RLatLon0.09_PT068H.grib2 2026-05-04 21:01 311K
20260504T18Z_MSC_RDPS_GeopotentialHeight_IsbL-0050_RLatLon0.09_PT068H.grib2 2026-05-04 21:01 310K
20260504T18Z_MSC_RDPS_GeopotentialHeight_IsbL-0100_RLatLon0.09_PT068H.grib2 2026-05-04 21:01 285K
20260504T18Z_MSC_RDPS_GeopotentialHeight_IsbL-0150_RLatLon0.09_PT068H.grib2 2026-05-04 21:01 227K
20260504T18Z_MSC_RDPS_GeopotentialHeight_IsbL-0175_RLatLon0.09_PT068H.grib2 2026-05-04 21:01 231K
20260504T18Z_MSC_RDPS_GeopotentialHeight_IsbL-0200_RLatLon0.09_PT068H.grib2 2026-05-04 21:01 234K
20260504T18Z_MSC_RDPS_GeopotentialHeight_IsbL-0225_RLatLon0.09_PT068H.grib2 2026-05-04 21:01 235K
20260504T18Z_MSC_RDPS_GeopotentialHeight_IsbL-0250_RLatLon0.09_PT068H.grib2 2026-05-04 21:01 237K
20260504T18Z_MSC_RDPS_GeopotentialHeight_IsbL-0275_RLatLon0.09_PT068H.grib2 2026-05-04 21:01 236K
20260504T18Z_MSC_RDPS_GeopotentialHeight_IsbL-0300_RLatLon0.09_PT068H.grib2 2026-05-04 21:01 235K
20260504T18Z_MSC_RDPS_GeopotentialHeight_IsbL-0350_RLatLon0.09_PT068H.grib2 2026-05-04 21:01 232K
20260504T18Z_MSC_RDPS_GeopotentialHeight_IsbL-0400_RLatLon0.09_PT068H.grib2 2026-05-04 21:01 228K
20260504T18Z_MSC_RDPS_GeopotentialHeight_IsbL-0450_RLatLon0.09_PT068H.grib2 2026-05-04 21:01 295K
20260504T18Z_MSC_RDPS_GeopotentialHeight_IsbL-0500_RLatLon0.09_PT068H.grib2 2026-05-04 21:01 289K
20260504T18Z_MSC_RDPS_GeopotentialHeight_IsbL-0550_RLatLon0.09_PT068H.grib2 2026-05-04 21:01 285K
20260504T18Z_MSC_RDPS_GeopotentialHeight_IsbL-0600_RLatLon0.09_PT068H.grib2 2026-05-04 21:01 281K
20260504T18Z_MSC_RDPS_GeopotentialHeight_IsbL-0650_RLatLon0.09_PT068H.grib2 2026-05-04 21:01 252K
20260504T18Z_MSC_RDPS_GeopotentialHeight_IsbL-0700_RLatLon0.09_PT068H.grib2 2026-05-04 21:01 332K
20260504T18Z_MSC_RDPS_GeopotentialHeight_IsbL-0750_RLatLon0.09_PT068H.grib2 2026-05-04 21:01 334K
20260504T18Z_MSC_RDPS_GeopotentialHeight_IsbL-0800_RLatLon0.09_PT068H.grib2 2026-05-04 21:01 375K
20260504T18Z_MSC_RDPS_GeopotentialHeight_IsbL-0850_RLatLon0.09_PT068H.grib2 2026-05-04 21:01 387K
20260504T18Z_MSC_RDPS_GeopotentialHeight_IsbL-0875_RLatLon0.09_PT068H.grib2 2026-05-04 21:01 391K
20260504T18Z_MSC_RDPS_GeopotentialHeight_IsbL-0900_RLatLon0.09_PT068H.grib2 2026-05-04 21:01 394K
20260504T18Z_MSC_RDPS_GeopotentialHeight_IsbL-0925_RLatLon0.09_PT068H.grib2 2026-05-04 21:01 371K
20260504T18Z_MSC_RDPS_GeopotentialHeight_IsbL-0950_RLatLon0.09_PT068H.grib2 2026-05-04 21:01 374K
20260504T18Z_MSC_RDPS_GeopotentialHeight_IsbL-0970_RLatLon0.09_PT068H.grib2 2026-05-04 21:01 380K
20260504T18Z_MSC_RDPS_GeopotentialHeight_IsbL-0985_RLatLon0.09_PT068H.grib2 2026-05-04 21:01 392K
20260504T18Z_MSC_RDPS_GeopotentialHeight_IsbL-1000_RLatLon0.09_PT068H.grib2 2026-05-04 21:01 407K
20260504T18Z_MSC_RDPS_GeopotentialHeight_IsbL-1015_RLatLon0.09_PT068H.grib2 2026-05-04 21:01 426K
20260504T18Z_MSC_RDPS_Humidex_Sfc_RLatLon0.09_PT068H.grib2 2026-05-04 21:01 2.4M
20260504T18Z_MSC_RDPS_IcePellets-Accum1h_Sfc_RLatLon0.09_PT068H.grib2 2026-05-04 21:01 6.1K
20260504T18Z_MSC_RDPS_IcePellets-Accum_Sfc_RLatLon0.09_PT068H.grib2 2026-05-04 21:01 44K
20260504T18Z_MSC_RDPS_KIndex_Sfc_RLatLon0.09_PT068H.grib2 2026-05-04 21:01 2.5M
20260504T18Z_MSC_RDPS_LatentHeatNetFlux_Sfc_RLatLon0.09_PT068H.grib2 2026-05-04 21:01 366K
20260504T18Z_MSC_RDPS_LiftedIndex-MU-VT_IsbL-0500_RLatLon0.09_PT068H.grib2 2026-05-04 21:01 2.4M
20260504T18Z_MSC_RDPS_NetLongwaveRadiationFlux-Accum_Sfc_RLatLon0.09_PT068H.grib2 2026-05-04 21:01 603K
20260504T18Z_MSC_RDPS_NetShortwaveRadiationFlux-Accum_Sfc_RLatLon0.09_PT068H.grib2 2026-05-04 21:01 616K
20260504T18Z_MSC_RDPS_PlanetaryBoundaryLayerHeight_Sfc_RLatLon0.09_PT068H.grib2 2026-05-04 21:01 1.2M
20260504T18Z_MSC_RDPS_Precip-Accum1h_Sfc_RLatLon0.09_PT068H.grib2 2026-05-04 21:01 1.3M
20260504T18Z_MSC_RDPS_Precip-Accum_Sfc_RLatLon0.09_PT068H.grib2 2026-05-04 21:01 2.2M
20260504T18Z_MSC_RDPS_PrecipRate_Sfc_RLatLon0.09_PT068H.grib2 2026-05-04 21:01 181K
20260504T18Z_MSC_RDPS_PrecipType-Instant_Sfc_RLatLon0.09_PT068H.grib2 2026-05-04 21:01 600K
20260504T18Z_MSC_RDPS_Pressure-Trend3h_Sfc_RLatLon0.09_PT068H.grib2 2026-05-04 21:01 1.2M
20260504T18Z_MSC_RDPS_Pressure_MSL_RLatLon0.09_PT068H.grib2 2026-05-04 21:01 390K
20260504T18Z_MSC_RDPS_Pressure_PVU-1.5_RLatLon0.09_PT068H.grib2 2026-05-04 21:01 2.5M
20260504T18Z_MSC_RDPS_Pressure_PVU-1_RLatLon0.09_PT068H.grib2 2026-05-04 21:01 2.4M
20260504T18Z_MSC_RDPS_Pressure_PVU-2_RLatLon0.09_PT068H.grib2 2026-05-04 21:01 2.4M
20260504T18Z_MSC_RDPS_Pressure_Sfc_RLatLon0.09_PT068H.grib2 2026-05-04 21:01 499K
20260504T18Z_MSC_RDPS_RadiativeTemp_Sfc_RLatLon0.09_PT068H.grib2 2026-05-04 21:01 313K
20260504T18Z_MSC_RDPS_Rain-Accum1h_Sfc_RLatLon0.09_PT068H.grib2 2026-05-04 21:01 650K
20260504T18Z_MSC_RDPS_Rain-Accum_Sfc_RLatLon0.09_PT068H.grib2 2026-05-04 21:01 1.8M
20260504T18Z_MSC_RDPS_RelativeHumidity_AGL-2m_RLatLon0.09_PT068H.grib2 2026-05-04 21:01 1.0M
20260504T18Z_MSC_RDPS_RelativeHumidity_IsbL-0010_RLatLon0.09_PT068H.grib2 2026-05-04 21:01 696K
20260504T18Z_MSC_RDPS_RelativeHumidity_IsbL-0020_RLatLon0.09_PT068H.grib2 2026-05-04 21:01 647K
20260504T18Z_MSC_RDPS_RelativeHumidity_IsbL-0030_RLatLon0.09_PT068H.grib2 2026-05-04 21:01 601K
20260504T18Z_MSC_RDPS_RelativeHumidity_IsbL-0050_RLatLon0.09_PT068H.grib2 2026-05-04 21:01 352K
20260504T18Z_MSC_RDPS_RelativeHumidity_IsbL-0100_RLatLon0.09_PT068H.grib2 2026-05-04 21:01 274K
20260504T18Z_MSC_RDPS_RelativeHumidity_IsbL-0150_RLatLon0.09_PT068H.grib2 2026-05-04 21:01 397K
20260504T18Z_MSC_RDPS_RelativeHumidity_IsbL-0175_RLatLon0.09_PT068H.grib2 2026-05-04 21:01 459K
20260504T18Z_MSC_RDPS_RelativeHumidity_IsbL-0200_RLatLon0.09_PT068H.grib2 2026-05-04 21:01 539K
20260504T18Z_MSC_RDPS_RelativeHumidity_IsbL-0225_RLatLon0.09_PT068H.grib2 2026-05-04 21:01 602K
20260504T18Z_MSC_RDPS_RelativeHumidity_IsbL-0250_RLatLon0.09_PT068H.grib2 2026-05-04 21:01 665K
20260504T18Z_MSC_RDPS_RelativeHumidity_IsbL-0275_RLatLon0.09_PT068H.grib2 2026-05-04 21:01 694K
20260504T18Z_MSC_RDPS_RelativeHumidity_IsbL-0300_RLatLon0.09_PT068H.grib2 2026-05-04 21:01 739K
20260504T18Z_MSC_RDPS_RelativeHumidity_IsbL-0350_RLatLon0.09_PT068H.grib2 2026-05-04 21:01 766K
20260504T18Z_MSC_RDPS_RelativeHumidity_IsbL-0400_RLatLon0.09_PT068H.grib2 2026-05-04 21:01 784K
20260504T18Z_MSC_RDPS_RelativeHumidity_IsbL-0450_RLatLon0.09_PT068H.grib2 2026-05-04 21:01 791K
20260504T18Z_MSC_RDPS_RelativeHumidity_IsbL-0500_RLatLon0.09_PT068H.grib2 2026-05-04 21:01 794K
20260504T18Z_MSC_RDPS_RelativeHumidity_IsbL-0550_RLatLon0.09_PT068H.grib2 2026-05-04 21:01 807K
20260504T18Z_MSC_RDPS_RelativeHumidity_IsbL-0600_RLatLon0.09_PT068H.grib2 2026-05-04 21:01 824K
20260504T18Z_MSC_RDPS_RelativeHumidity_IsbL-0650_RLatLon0.09_PT068H.grib2 2026-05-04 21:01 830K
20260504T18Z_MSC_RDPS_RelativeHumidity_IsbL-0700_RLatLon0.09_PT068H.grib2 2026-05-04 21:01 853K
20260504T18Z_MSC_RDPS_RelativeHumidity_IsbL-0750_RLatLon0.09_PT068H.grib2 2026-05-04 21:01 904K
20260504T18Z_MSC_RDPS_RelativeHumidity_IsbL-0800_RLatLon0.09_PT068H.grib2 2026-05-04 21:01 1.0M
20260504T18Z_MSC_RDPS_RelativeHumidity_IsbL-0850_RLatLon0.09_PT068H.grib2 2026-05-04 21:01 1.0M
20260504T18Z_MSC_RDPS_RelativeHumidity_IsbL-0875_RLatLon0.09_PT068H.grib2 2026-05-04 21:01 1.1M
20260504T18Z_MSC_RDPS_RelativeHumidity_IsbL-0900_RLatLon0.09_PT068H.grib2 2026-05-04 21:01 1.1M
20260504T18Z_MSC_RDPS_RelativeHumidity_IsbL-0925_RLatLon0.09_PT068H.grib2 2026-05-04 21:01 1.1M
20260504T18Z_MSC_RDPS_RelativeHumidity_IsbL-0950_RLatLon0.09_PT068H.grib2 2026-05-04 21:01 1.1M
20260504T18Z_MSC_RDPS_RelativeHumidity_IsbL-0970_RLatLon0.09_PT068H.grib2 2026-05-04 21:01 1.1M
20260504T18Z_MSC_RDPS_RelativeHumidity_IsbL-0985_RLatLon0.09_PT068H.grib2 2026-05-04 21:01 1.1M
20260504T18Z_MSC_RDPS_RelativeHumidity_IsbL-1000_RLatLon0.09_PT068H.grib2 2026-05-04 21:01 1.0M
20260504T18Z_MSC_RDPS_RelativeHumidity_IsbL-1015_RLatLon0.09_PT068H.grib2 2026-05-04 21:01 1.0M
20260504T18Z_MSC_RDPS_Runoff-Accum_Sfc_RLatLon0.09_PT068H.grib2 2026-05-04 21:01 66K
20260504T18Z_MSC_RDPS_SWEATIndex_Sfc_RLatLon0.09_PT068H.grib2 2026-05-04 21:01 2.4M
20260504T18Z_MSC_RDPS_SeeingIndex_EAtm_RLatLon0.09_PT068H.grib2 2026-05-04 21:01 1.0M
20260504T18Z_MSC_RDPS_SensibleHeatNetFlux_Sfc_RLatLon0.09_PT068H.grib2 2026-05-04 21:01 336K
20260504T18Z_MSC_RDPS_ShowalterIndex_IsbL-0500_RLatLon0.09_PT068H.grib2 2026-05-04 21:01 2.6M
20260504T18Z_MSC_RDPS_SkyTransparencyIndex_EAtm_RLatLon0.09_PT068H.grib2 2026-05-04 21:01 735K
20260504T18Z_MSC_RDPS_Snow-Accum1h_Sfc_RLatLon0.09_PT068H.grib2 2026-05-04 21:01 449K
20260504T18Z_MSC_RDPS_Snow-Accum_Sfc_RLatLon0.09_PT068H.grib2 2026-05-04 21:01 783K
20260504T18Z_MSC_RDPS_SnowDensity_Sfc_RLatLon0.09_PT068H.grib2 2026-05-04 21:01 178K
20260504T18Z_MSC_RDPS_SnowDepth_Sfc_RLatLon0.09_PT068H.grib2 2026-05-04 21:01 650K
20260504T18Z_MSC_RDPS_SoilTemp_DBS-0to10cm_RLatLon0.09_PT068H.grib2 2026-05-04 21:01 243K
20260504T18Z_MSC_RDPS_SoilTemp_Sfc_RLatLon0.09_PT068H.grib2 2026-05-04 21:01 287K
20260504T18Z_MSC_RDPS_SoilVolumetricIceContent_Sfc_RLatLon0.09_PT068H.grib2 2026-05-04 21:01 151K
20260504T18Z_MSC_RDPS_SoilVolumetricWaterContent_DBS-0to10cm_RLatLon0.09_PT068H.grib2 2026-05-04 21:01 284K
20260504T18Z_MSC_RDPS_SoilVolumetricWaterContent_DBS-0to1cm_RLatLon0.09_PT068H.grib2 2026-05-04 21:01 345K
20260504T18Z_MSC_RDPS_SpecificHumidity_AGL-120m_RLatLon0.09_PT068H.grib2 2026-05-04 21:01 510K
20260504T18Z_MSC_RDPS_SpecificHumidity_AGL-2m_RLatLon0.09_PT068H.grib2 2026-05-04 21:01 678K
20260504T18Z_MSC_RDPS_SpecificHumidity_AGL-40m_RLatLon0.09_PT068H.grib2 2026-05-04 21:01 516K
20260504T18Z_MSC_RDPS_SpecificHumidity_AGL-80m_RLatLon0.09_PT068H.grib2 2026-05-04 21:01 512K
20260504T18Z_MSC_RDPS_SpecificHumidity_IsbL-0001_RLatLon0.09_PT068H.grib2 2026-05-04 21:01 374K
20260504T18Z_MSC_RDPS_SpecificHumidity_IsbL-0005_RLatLon0.09_PT068H.grib2 2026-05-04 21:01 368K
20260504T18Z_MSC_RDPS_SpecificHumidity_IsbL-0010_RLatLon0.09_PT068H.grib2 2026-05-04 21:01 400K
20260504T18Z_MSC_RDPS_SpecificHumidity_IsbL-0020_RLatLon0.09_PT068H.grib2 2026-05-04 21:01 487K
20260504T18Z_MSC_RDPS_SpecificHumidity_IsbL-0030_RLatLon0.09_PT068H.grib2 2026-05-04 21:01 360K
20260504T18Z_MSC_RDPS_SpecificHumidity_IsbL-0050_RLatLon0.09_PT068H.grib2 2026-05-04 21:01 468K
20260504T18Z_MSC_RDPS_SpecificHumidity_IsbL-0100_RLatLon0.09_PT068H.grib2 2026-05-04 21:01 414K
20260504T18Z_MSC_RDPS_SpecificHumidity_IsbL-0150_RLatLon0.09_PT068H.grib2 2026-05-04 21:01 464K
20260504T18Z_MSC_RDPS_SpecificHumidity_IsbL-0175_RLatLon0.09_PT068H.grib2 2026-05-04 21:01 428K
20260504T18Z_MSC_RDPS_SpecificHumidity_IsbL-0200_RLatLon0.09_PT068H.grib2 2026-05-04 21:01 461K
20260504T18Z_MSC_RDPS_SpecificHumidity_IsbL-0225_RLatLon0.09_PT068H.grib2 2026-05-04 21:01 442K
20260504T18Z_MSC_RDPS_SpecificHumidity_IsbL-0250_RLatLon0.09_PT068H.grib2 2026-05-04 21:01 544K
20260504T18Z_MSC_RDPS_SpecificHumidity_IsbL-0275_RLatLon0.09_PT068H.grib2 2026-05-04 21:01 463K
20260504T18Z_MSC_RDPS_SpecificHumidity_IsbL-0300_RLatLon0.09_PT068H.grib2 2026-05-04 21:01 533K
20260504T18Z_MSC_RDPS_SpecificHumidity_IsbL-0350_RLatLon0.09_PT068H.grib2 2026-05-04 21:01 530K
20260504T18Z_MSC_RDPS_SpecificHumidity_IsbL-0400_RLatLon0.09_PT068H.grib2 2026-05-04 21:01 515K
20260504T18Z_MSC_RDPS_SpecificHumidity_IsbL-0450_RLatLon0.09_PT068H.grib2 2026-05-04 21:01 567K
20260504T18Z_MSC_RDPS_SpecificHumidity_IsbL-0500_RLatLon0.09_PT068H.grib2 2026-05-04 21:01 500K
20260504T18Z_MSC_RDPS_SpecificHumidity_IsbL-0550_RLatLon0.09_PT068H.grib2 2026-05-04 21:01 554K
20260504T18Z_MSC_RDPS_SpecificHumidity_IsbL-0600_RLatLon0.09_PT068H.grib2 2026-05-04 21:01 621K
20260504T18Z_MSC_RDPS_SpecificHumidity_IsbL-0650_RLatLon0.09_PT068H.grib2 2026-05-04 21:01 534K
20260504T18Z_MSC_RDPS_SpecificHumidity_IsbL-0700_RLatLon0.09_PT068H.grib2 2026-05-04 21:01 575K
20260504T18Z_MSC_RDPS_SpecificHumidity_IsbL-0750_RLatLon0.09_PT068H.grib2 2026-05-04 21:01 636K
20260504T18Z_MSC_RDPS_SpecificHumidity_IsbL-0800_RLatLon0.09_PT068H.grib2 2026-05-04 21:01 734K
20260504T18Z_MSC_RDPS_SpecificHumidity_IsbL-0850_RLatLon0.09_PT068H.grib2 2026-05-04 21:01 819K
20260504T18Z_MSC_RDPS_SpecificHumidity_IsbL-0875_RLatLon0.09_PT068H.grib2 2026-05-04 21:01 846K
20260504T18Z_MSC_RDPS_SpecificHumidity_IsbL-0900_RLatLon0.09_PT068H.grib2 2026-05-04 21:01 859K
20260504T18Z_MSC_RDPS_SpecificHumidity_IsbL-0925_RLatLon0.09_PT068H.grib2 2026-05-04 21:01 863K
20260504T18Z_MSC_RDPS_SpecificHumidity_IsbL-0950_RLatLon0.09_PT068H.grib2 2026-05-04 21:01 862K
20260504T18Z_MSC_RDPS_SpecificHumidity_IsbL-0970_RLatLon0.09_PT068H.grib2 2026-05-04 21:01 854K
20260504T18Z_MSC_RDPS_SpecificHumidity_IsbL-0985_RLatLon0.09_PT068H.grib2 2026-05-04 21:01 708K
20260504T18Z_MSC_RDPS_SpecificHumidity_IsbL-1000_RLatLon0.09_PT068H.grib2 2026-05-04 21:01 703K
20260504T18Z_MSC_RDPS_SpecificHumidity_IsbL-1015_RLatLon0.09_PT068H.grib2 2026-05-04 21:01 691K
20260504T18Z_MSC_RDPS_SpecificHumidity_Sfc_RLatLon0.09_PT068H.grib2 2026-05-04 21:01 318K
20260504T18Z_MSC_RDPS_StormRelativeHelicity_EtaL-10000_RLatLon0.09_PT068H.grib2 2026-05-04 21:01 1.1M
20260504T18Z_MSC_RDPS_StormSeverityIndex_EtaL-10000_RLatLon0.09_PT068H.grib2 2026-05-04 21:01 1.1M
20260504T18Z_MSC_RDPS_Thickness_IsbL-0850to0700_RLatLon0.09_PT068H.grib2 2026-05-04 21:01 243K
20260504T18Z_MSC_RDPS_Thickness_IsbL-1000to0500_RLatLon0.09_PT068H.grib2 2026-05-04 21:01 191K
20260504T18Z_MSC_RDPS_Thickness_IsbL-1000to0850_RLatLon0.09_PT068H.grib2 2026-05-04 21:01 261K
20260504T18Z_MSC_RDPS_TotalCloudCover_Sfc_RLatLon0.09_PT068H.grib2 2026-05-04 21:01 675K
20260504T18Z_MSC_RDPS_TotalTotalsIndex_Sfc_RLatLon0.09_PT068H.grib2 2026-05-04 21:01 2.4M
20260504T18Z_MSC_RDPS_UVIndex-ClearSky_Sfc_RLatLon0.09_PT068H.grib2 2026-05-04 21:01 212K
20260504T18Z_MSC_RDPS_UVIndex_Sfc_RLatLon0.09_PT068H.grib2 2026-05-04 21:01 480K
20260504T18Z_MSC_RDPS_UpwardLongwaveRadiationFlux_NTAtm_RLatLon0.09_PT068H.grib2 2026-05-04 21:01 488K
20260504T18Z_MSC_RDPS_UpwardShortwaveRadiationFlux_NTAtm_RLatLon0.09_PT068H.grib2 2026-05-04 21:01 429K
20260504T18Z_MSC_RDPS_VerticalVelocity_IsbL-0250_RLatLon0.09_PT068H.grib2 2026-05-04 21:01 574K
20260504T18Z_MSC_RDPS_VerticalVelocity_IsbL-0500_RLatLon0.09_PT068H.grib2 2026-05-04 21:01 570K
20260504T18Z_MSC_RDPS_VerticalVelocity_IsbL-0700_RLatLon0.09_PT068H.grib2 2026-05-04 21:01 582K
20260504T18Z_MSC_RDPS_VerticalVelocity_IsbL-0850_RLatLon0.09_PT068H.grib2 2026-05-04 21:01 830K
20260504T18Z_MSC_RDPS_VerticalWindShear_EtaL-6500_RLatLon0.09_PT068H.grib2 2026-05-04 21:01 1.2M
20260504T18Z_MSC_RDPS_WindChill_Sfc_RLatLon0.09_PT068H.grib2 2026-05-04 21:01 1.2M
20260504T18Z_MSC_RDPS_WindDir_AGL-10m_RLatLon0.09_PT068H.grib2 2026-05-04 21:01 1.0M
20260504T18Z_MSC_RDPS_WindDir_AGL-120m_RLatLon0.09_PT068H.grib2 2026-05-04 21:01 634K
20260504T18Z_MSC_RDPS_WindDir_AGL-40m_RLatLon0.09_PT068H.grib2 2026-05-04 21:01 660K
20260504T18Z_MSC_RDPS_WindDir_AGL-80m_RLatLon0.09_PT068H.grib2 2026-05-04 21:01 644K
20260504T18Z_MSC_RDPS_WindDir_IsbL-0001_RLatLon0.09_PT068H.grib2 2026-05-04 21:01 300K
20260504T18Z_MSC_RDPS_WindDir_IsbL-0005_RLatLon0.09_PT068H.grib2 2026-05-04 21:01 387K
20260504T18Z_MSC_RDPS_WindDir_IsbL-0010_RLatLon0.09_PT068H.grib2 2026-05-04 21:01 381K
20260504T18Z_MSC_RDPS_WindDir_IsbL-0020_RLatLon0.09_PT068H.grib2 2026-05-04 21:01 413K
20260504T18Z_MSC_RDPS_WindDir_IsbL-0030_RLatLon0.09_PT068H.grib2 2026-05-04 21:01 410K
20260504T18Z_MSC_RDPS_WindDir_IsbL-0050_RLatLon0.09_PT068H.grib2 2026-05-04 21:01 438K
20260504T18Z_MSC_RDPS_WindDir_IsbL-0100_RLatLon0.09_PT068H.grib2 2026-05-04 21:01 415K
20260504T18Z_MSC_RDPS_WindDir_IsbL-0150_RLatLon0.09_PT068H.grib2 2026-05-04 21:01 418K
20260504T18Z_MSC_RDPS_WindDir_IsbL-0175_RLatLon0.09_PT068H.grib2 2026-05-04 21:01 441K
20260504T18Z_MSC_RDPS_WindDir_IsbL-0200_RLatLon0.09_PT068H.grib2 2026-05-04 21:01 458K
20260504T18Z_MSC_RDPS_WindDir_IsbL-0225_RLatLon0.09_PT068H.grib2 2026-05-04 21:01 461K
20260504T18Z_MSC_RDPS_WindDir_IsbL-0250_RLatLon0.09_PT068H.grib2 2026-05-04 21:01 457K
20260504T18Z_MSC_RDPS_WindDir_IsbL-0275_RLatLon0.09_PT068H.grib2 2026-05-04 21:01 473K
20260504T18Z_MSC_RDPS_WindDir_IsbL-0300_RLatLon0.09_PT068H.grib2 2026-05-04 21:01 470K
20260504T18Z_MSC_RDPS_WindDir_IsbL-0350_RLatLon0.09_PT068H.grib2 2026-05-04 21:01 498K
20260504T18Z_MSC_RDPS_WindDir_IsbL-0400_RLatLon0.09_PT068H.grib2 2026-05-04 21:01 507K
20260504T18Z_MSC_RDPS_WindDir_IsbL-0450_RLatLon0.09_PT068H.grib2 2026-05-04 21:01 524K
20260504T18Z_MSC_RDPS_WindDir_IsbL-0500_RLatLon0.09_PT068H.grib2 2026-05-04 21:01 543K
20260504T18Z_MSC_RDPS_WindDir_IsbL-0550_RLatLon0.09_PT068H.grib2 2026-05-04 21:01 556K
20260504T18Z_MSC_RDPS_WindDir_IsbL-0600_RLatLon0.09_PT068H.grib2 2026-05-04 21:01 585K
20260504T18Z_MSC_RDPS_WindDir_IsbL-0650_RLatLon0.09_PT068H.grib2 2026-05-04 21:01 628K
20260504T18Z_MSC_RDPS_WindDir_IsbL-0700_RLatLon0.09_PT068H.grib2 2026-05-04 21:01 671K
20260504T18Z_MSC_RDPS_WindDir_IsbL-0750_RLatLon0.09_PT068H.grib2 2026-05-04 21:01 720K
20260504T18Z_MSC_RDPS_WindDir_IsbL-0800_RLatLon0.09_PT068H.grib2 2026-05-04 21:01 796K
20260504T18Z_MSC_RDPS_WindDir_IsbL-0850_RLatLon0.09_PT068H.grib2 2026-05-04 21:01 874K
20260504T18Z_MSC_RDPS_WindDir_IsbL-0875_RLatLon0.09_PT068H.grib2 2026-05-04 21:01 905K
20260504T18Z_MSC_RDPS_WindDir_IsbL-0900_RLatLon0.09_PT068H.grib2 2026-05-04 21:01 923K
20260504T18Z_MSC_RDPS_WindDir_IsbL-0925_RLatLon0.09_PT068H.grib2 2026-05-04 21:01 938K
20260504T18Z_MSC_RDPS_WindDir_IsbL-0950_RLatLon0.09_PT068H.grib2 2026-05-04 21:01 940K
20260504T18Z_MSC_RDPS_WindDir_IsbL-0970_RLatLon0.09_PT068H.grib2 2026-05-04 21:01 944K
20260504T18Z_MSC_RDPS_WindDir_IsbL-0985_RLatLon0.09_PT068H.grib2 2026-05-04 21:01 953K
20260504T18Z_MSC_RDPS_WindDir_IsbL-1000_RLatLon0.09_PT068H.grib2 2026-05-04 21:01 969K
20260504T18Z_MSC_RDPS_WindDir_IsbL-1015_RLatLon0.09_PT068H.grib2 2026-05-04 21:01 1.0M
20260504T18Z_MSC_RDPS_WindGust-Max_AGL-10m_RLatLon0.09_PT068H.grib2 2026-05-04 21:01 1.0M
20260504T18Z_MSC_RDPS_WindGust-Min_AGL-10m_RLatLon0.09_PT068H.grib2 2026-05-04 21:01 1.0M
20260504T18Z_MSC_RDPS_WindGust_AGL-10m_RLatLon0.09_PT068H.grib2 2026-05-04 21:01 1.0M
20260504T18Z_MSC_RDPS_WindSpeed_AGL-10m_RLatLon0.09_PT068H.grib2 2026-05-04 21:01 846K
20260504T18Z_MSC_RDPS_WindSpeed_AGL-120m_RLatLon0.09_PT068H.grib2 2026-05-04 21:01 545K
20260504T18Z_MSC_RDPS_WindSpeed_AGL-40m_RLatLon0.09_PT068H.grib2 2026-05-04 21:01 675K
20260504T18Z_MSC_RDPS_WindSpeed_AGL-80m_RLatLon0.09_PT068H.grib2 2026-05-04 21:01 544K
20260504T18Z_MSC_RDPS_WindSpeed_IsbL-0001_RLatLon0.09_PT068H.grib2 2026-05-04 21:01 336K
20260504T18Z_MSC_RDPS_WindSpeed_IsbL-0005_RLatLon0.09_PT068H.grib2 2026-05-04 21:01 294K
20260504T18Z_MSC_RDPS_WindSpeed_IsbL-0010_RLatLon0.09_PT068H.grib2 2026-05-04 21:01 397K
20260504T18Z_MSC_RDPS_WindSpeed_IsbL-0020_RLatLon0.09_PT068H.grib2 2026-05-04 21:01 422K
20260504T18Z_MSC_RDPS_WindSpeed_IsbL-0030_RLatLon0.09_PT068H.grib2 2026-05-04 21:01 319K
20260504T18Z_MSC_RDPS_WindSpeed_IsbL-0050_RLatLon0.09_PT068H.grib2 2026-05-04 21:01 345K
20260504T18Z_MSC_RDPS_WindSpeed_IsbL-0100_RLatLon0.09_PT068H.grib2 2026-05-04 21:01 429K
20260504T18Z_MSC_RDPS_WindSpeed_IsbL-0150_RLatLon0.09_PT068H.grib2 2026-05-04 21:01 393K
20260504T18Z_MSC_RDPS_WindSpeed_IsbL-0175_RLatLon0.09_PT068H.grib2 2026-05-04 21:01 417K
20260504T18Z_MSC_RDPS_WindSpeed_IsbL-0200_RLatLon0.09_PT068H.grib2 2026-05-04 21:01 436K
20260504T18Z_MSC_RDPS_WindSpeed_IsbL-0225_RLatLon0.09_PT068H.grib2 2026-05-04 21:01 439K
20260504T18Z_MSC_RDPS_WindSpeed_IsbL-0250_RLatLon0.09_PT068H.grib2 2026-05-04 21:01 439K
20260504T18Z_MSC_RDPS_WindSpeed_IsbL-0275_RLatLon0.09_PT068H.grib2 2026-05-04 21:01 455K
20260504T18Z_MSC_RDPS_WindSpeed_IsbL-0300_RLatLon0.09_PT068H.grib2 2026-05-04 21:01 454K
20260504T18Z_MSC_RDPS_WindSpeed_IsbL-0350_RLatLon0.09_PT068H.grib2 2026-05-04 21:01 470K
20260504T18Z_MSC_RDPS_WindSpeed_IsbL-0400_RLatLon0.09_PT068H.grib2 2026-05-04 21:01 455K
20260504T18Z_MSC_RDPS_WindSpeed_IsbL-0450_RLatLon0.09_PT068H.grib2 2026-05-04 21:01 454K
20260504T18Z_MSC_RDPS_WindSpeed_IsbL-0500_RLatLon0.09_PT068H.grib2 2026-05-04 21:01 570K
20260504T18Z_MSC_RDPS_WindSpeed_IsbL-0550_RLatLon0.09_PT068H.grib2 2026-05-04 21:01 570K
20260504T18Z_MSC_RDPS_WindSpeed_IsbL-0600_RLatLon0.09_PT068H.grib2 2026-05-04 21:01 621K
20260504T18Z_MSC_RDPS_WindSpeed_IsbL-0650_RLatLon0.09_PT068H.grib2 2026-05-04 21:01 642K
20260504T18Z_MSC_RDPS_WindSpeed_IsbL-0700_RLatLon0.09_PT068H.grib2 2026-05-04 21:01 666K
20260504T18Z_MSC_RDPS_WindSpeed_IsbL-0750_RLatLon0.09_PT068H.grib2 2026-05-04 21:01 700K
20260504T18Z_MSC_RDPS_WindSpeed_IsbL-0800_RLatLon0.09_PT068H.grib2 2026-05-04 21:01 754K
20260504T18Z_MSC_RDPS_WindSpeed_IsbL-0850_RLatLon0.09_PT068H.grib2 2026-05-04 21:01 821K
20260504T18Z_MSC_RDPS_WindSpeed_IsbL-0875_RLatLon0.09_PT068H.grib2 2026-05-04 21:01 845K
20260504T18Z_MSC_RDPS_WindSpeed_IsbL-0900_RLatLon0.09_PT068H.grib2 2026-05-04 21:01 860K
20260504T18Z_MSC_RDPS_WindSpeed_IsbL-0925_RLatLon0.09_PT068H.grib2 2026-05-04 21:01 866K
20260504T18Z_MSC_RDPS_WindSpeed_IsbL-0950_RLatLon0.09_PT068H.grib2 2026-05-04 21:01 867K
20260504T18Z_MSC_RDPS_WindSpeed_IsbL-0970_RLatLon0.09_PT068H.grib2 2026-05-04 21:01 862K
20260504T18Z_MSC_RDPS_WindSpeed_IsbL-0985_RLatLon0.09_PT068H.grib2 2026-05-04 21:01 857K
20260504T18Z_MSC_RDPS_WindSpeed_IsbL-1000_RLatLon0.09_PT068H.grib2 2026-05-04 21:01 853K
20260504T18Z_MSC_RDPS_WindSpeed_IsbL-1015_RLatLon0.09_PT068H.grib2 2026-05-04 21:01 845K
20260504T18Z_MSC_RDPS_WindU_AGL-10m_RLatLon0.09_PT068H.grib2 2026-05-04 21:01 437K
20260504T18Z_MSC_RDPS_WindU_AGL-120m_RLatLon0.09_PT068H.grib2 2026-05-04 21:01 542K
20260504T18Z_MSC_RDPS_WindU_AGL-40m_RLatLon0.09_PT068H.grib2 2026-05-04 21:01 543K
20260504T18Z_MSC_RDPS_WindU_AGL-80m_RLatLon0.09_PT068H.grib2 2026-05-04 21:01 542K
20260504T18Z_MSC_RDPS_WindU_IsbL-0001_RLatLon0.09_PT068H.grib2 2026-05-04 21:01 247K
20260504T18Z_MSC_RDPS_WindU_IsbL-0005_RLatLon0.09_PT068H.grib2 2026-05-04 21:01 285K
20260504T18Z_MSC_RDPS_WindU_IsbL-0010_RLatLon0.09_PT068H.grib2 2026-05-04 21:01 298K
20260504T18Z_MSC_RDPS_WindU_IsbL-0020_RLatLon0.09_PT068H.grib2 2026-05-04 21:01 318K
20260504T18Z_MSC_RDPS_WindU_IsbL-0030_RLatLon0.09_PT068H.grib2 2026-05-04 21:01 353K
20260504T18Z_MSC_RDPS_WindU_IsbL-0050_RLatLon0.09_PT068H.grib2 2026-05-04 21:01 375K
20260504T18Z_MSC_RDPS_WindU_IsbL-0100_RLatLon0.09_PT068H.grib2 2026-05-04 21:01 329K
20260504T18Z_MSC_RDPS_WindU_IsbL-0150_RLatLon0.09_PT068H.grib2 2026-05-04 21:01 387K
20260504T18Z_MSC_RDPS_WindU_IsbL-0175_RLatLon0.09_PT068H.grib2 2026-05-04 21:01 412K
20260504T18Z_MSC_RDPS_WindU_IsbL-0200_RLatLon0.09_PT068H.grib2 2026-05-04 21:01 429K
20260504T18Z_MSC_RDPS_WindU_IsbL-0225_RLatLon0.09_PT068H.grib2 2026-05-04 21:01 334K
20260504T18Z_MSC_RDPS_WindU_IsbL-0250_RLatLon0.09_PT068H.grib2 2026-05-04 21:01 333K
20260504T18Z_MSC_RDPS_WindU_IsbL-0275_RLatLon0.09_PT068H.grib2 2026-05-04 21:01 346K
20260504T18Z_MSC_RDPS_WindU_IsbL-0300_RLatLon0.09_PT068H.grib2 2026-05-04 21:01 344K
20260504T18Z_MSC_RDPS_WindU_IsbL-0350_RLatLon0.09_PT068H.grib2 2026-05-04 21:01 355K
20260504T18Z_MSC_RDPS_WindU_IsbL-0400_RLatLon0.09_PT068H.grib2 2026-05-04 21:01 357K
20260504T18Z_MSC_RDPS_WindU_IsbL-0450_RLatLon0.09_PT068H.grib2 2026-05-04 21:01 459K
20260504T18Z_MSC_RDPS_WindU_IsbL-0500_RLatLon0.09_PT068H.grib2 2026-05-04 21:01 459K
20260504T18Z_MSC_RDPS_WindU_IsbL-0550_RLatLon0.09_PT068H.grib2 2026-05-04 21:01 459K
20260504T18Z_MSC_RDPS_WindU_IsbL-0600_RLatLon0.09_PT068H.grib2 2026-05-04 21:01 467K
20260504T18Z_MSC_RDPS_WindU_IsbL-0650_RLatLon0.09_PT068H.grib2 2026-05-04 21:01 485K
20260504T18Z_MSC_RDPS_WindU_IsbL-0700_RLatLon0.09_PT068H.grib2 2026-05-04 21:01 507K
20260504T18Z_MSC_RDPS_WindU_IsbL-0750_RLatLon0.09_PT068H.grib2 2026-05-04 21:01 535K
20260504T18Z_MSC_RDPS_WindU_IsbL-0800_RLatLon0.09_PT068H.grib2 2026-05-04 21:01 569K
20260504T18Z_MSC_RDPS_WindU_IsbL-0850_RLatLon0.09_PT068H.grib2 2026-05-04 21:01 628K
20260504T18Z_MSC_RDPS_WindU_IsbL-0875_RLatLon0.09_PT068H.grib2 2026-05-04 21:01 648K
20260504T18Z_MSC_RDPS_WindU_IsbL-0900_RLatLon0.09_PT068H.grib2 2026-05-04 21:01 660K
20260504T18Z_MSC_RDPS_WindU_IsbL-0925_RLatLon0.09_PT068H.grib2 2026-05-04 21:01 666K
20260504T18Z_MSC_RDPS_WindU_IsbL-0950_RLatLon0.09_PT068H.grib2 2026-05-04 21:01 663K
20260504T18Z_MSC_RDPS_WindU_IsbL-0970_RLatLon0.09_PT068H.grib2 2026-05-04 21:01 799K
20260504T18Z_MSC_RDPS_WindU_IsbL-0985_RLatLon0.09_PT068H.grib2 2026-05-04 21:01 795K
20260504T18Z_MSC_RDPS_WindU_IsbL-1000_RLatLon0.09_PT068H.grib2 2026-05-04 21:01 793K
20260504T18Z_MSC_RDPS_WindU_IsbL-1015_RLatLon0.09_PT068H.grib2 2026-05-04 21:01 835K
20260504T18Z_MSC_RDPS_WindV_AGL-10m_RLatLon0.09_PT068H.grib2 2026-05-04 21:01 433K
20260504T18Z_MSC_RDPS_WindV_AGL-120m_RLatLon0.09_PT068H.grib2 2026-05-04 21:01 539K
20260504T18Z_MSC_RDPS_WindV_AGL-40m_RLatLon0.09_PT068H.grib2 2026-05-04 21:01 539K
20260504T18Z_MSC_RDPS_WindV_AGL-80m_RLatLon0.09_PT068H.grib2 2026-05-04 21:01 538K
20260504T18Z_MSC_RDPS_WindV_IsbL-0001_RLatLon0.09_PT068H.grib2 2026-05-04 21:01 249K
20260504T18Z_MSC_RDPS_WindV_IsbL-0005_RLatLon0.09_PT068H.grib2 2026-05-04 21:01 287K
20260504T18Z_MSC_RDPS_WindV_IsbL-0010_RLatLon0.09_PT068H.grib2 2026-05-04 21:01 299K
20260504T18Z_MSC_RDPS_WindV_IsbL-0020_RLatLon0.09_PT068H.grib2 2026-05-04 21:01 319K
20260504T18Z_MSC_RDPS_WindV_IsbL-0030_RLatLon0.09_PT068H.grib2 2026-05-04 21:01 315K
20260504T18Z_MSC_RDPS_WindV_IsbL-0050_RLatLon0.09_PT068H.grib2 2026-05-04 21:01 339K
20260504T18Z_MSC_RDPS_WindV_IsbL-0100_RLatLon0.09_PT068H.grib2 2026-05-04 21:01 418K
20260504T18Z_MSC_RDPS_WindV_IsbL-0150_RLatLon0.09_PT068H.grib2 2026-05-04 21:01 386K
20260504T18Z_MSC_RDPS_WindV_IsbL-0175_RLatLon0.09_PT068H.grib2 2026-05-04 21:01 409K
20260504T18Z_MSC_RDPS_WindV_IsbL-0200_RLatLon0.09_PT068H.grib2 2026-05-04 21:01 427K
20260504T18Z_MSC_RDPS_WindV_IsbL-0225_RLatLon0.09_PT068H.grib2 2026-05-04 21:01 333K
20260504T18Z_MSC_RDPS_WindV_IsbL-0250_RLatLon0.09_PT068H.grib2 2026-05-04 21:01 332K
20260504T18Z_MSC_RDPS_WindV_IsbL-0275_RLatLon0.09_PT068H.grib2 2026-05-04 21:01 345K
20260504T18Z_MSC_RDPS_WindV_IsbL-0300_RLatLon0.09_PT068H.grib2 2026-05-04 21:01 343K
20260504T18Z_MSC_RDPS_WindV_IsbL-0350_RLatLon0.09_PT068H.grib2 2026-05-04 21:01 354K
20260504T18Z_MSC_RDPS_WindV_IsbL-0400_RLatLon0.09_PT068H.grib2 2026-05-04 21:01 458K
20260504T18Z_MSC_RDPS_WindV_IsbL-0450_RLatLon0.09_PT068H.grib2 2026-05-04 21:01 457K
20260504T18Z_MSC_RDPS_WindV_IsbL-0500_RLatLon0.09_PT068H.grib2 2026-05-04 21:01 457K
20260504T18Z_MSC_RDPS_WindV_IsbL-0550_RLatLon0.09_PT068H.grib2 2026-05-04 21:01 456K
20260504T18Z_MSC_RDPS_WindV_IsbL-0600_RLatLon0.09_PT068H.grib2 2026-05-04 21:01 464K
20260504T18Z_MSC_RDPS_WindV_IsbL-0650_RLatLon0.09_PT068H.grib2 2026-05-04 21:01 481K
20260504T18Z_MSC_RDPS_WindV_IsbL-0700_RLatLon0.09_PT068H.grib2 2026-05-04 21:01 501K
20260504T18Z_MSC_RDPS_WindV_IsbL-0750_RLatLon0.09_PT068H.grib2 2026-05-04 21:01 515K
20260504T18Z_MSC_RDPS_WindV_IsbL-0800_RLatLon0.09_PT068H.grib2 2026-05-04 21:01 563K
20260504T18Z_MSC_RDPS_WindV_IsbL-0850_RLatLon0.09_PT068H.grib2 2026-05-04 21:01 622K
20260504T18Z_MSC_RDPS_WindV_IsbL-0875_RLatLon0.09_PT068H.grib2 2026-05-04 21:01 644K
20260504T18Z_MSC_RDPS_WindV_IsbL-0900_RLatLon0.09_PT068H.grib2 2026-05-04 21:01 656K
20260504T18Z_MSC_RDPS_WindV_IsbL-0925_RLatLon0.09_PT068H.grib2 2026-05-04 21:01 663K
20260504T18Z_MSC_RDPS_WindV_IsbL-0950_RLatLon0.09_PT068H.grib2 2026-05-04 21:01 803K
20260504T18Z_MSC_RDPS_WindV_IsbL-0970_RLatLon0.09_PT068H.grib2 2026-05-04 21:01 797K
20260504T18Z_MSC_RDPS_WindV_IsbL-0985_RLatLon0.09_PT068H.grib2 2026-05-04 21:01 792K
20260504T18Z_MSC_RDPS_WindV_IsbL-1000_RLatLon0.09_PT068H.grib2 2026-05-04 21:01 835K
20260504T18Z_MSC_RDPS_WindV_IsbL-1015_RLatLon0.09_PT068H.grib2 2026-05-04 21:01 828K